Weather History for Albany, NY

Change the Weather History Date:

Friday, January 25, 2013

  Actual Average Record
Temperature  
Mean Temperature 11 °F 22 °F  
Max Temperature 17 °F 31 °F 61 °F (1938)
Min Temperature 4 °F 14 °F -12 °F (1945)
Degree Days  
Heating Degree Days 54 43  
Month to date heating degree days 996 1066  
Since 1 July heating degree days 3258 3601  
Cooling Degree Days 0 0  
Month to date cooling degree days 0 0  
Year to date cooling degree days 0 0  
Moisture  
Dew Point 1 °F    
Average Humidity 66    
Maximum Humidity 88    
Minimum Humidity 43    
Precipitation  
Precipitation 0.08 in 0.09 in 1.33 in (1979)
Month to date precipitation 0.56 2.10  
Year to date precipitation 0.56 2.10  
Snow  
Snow 0.60 in 0.50 in 9.50 in (2000)
Month to date snowfall 4.4 14.4  
Since 1 July snowfall 17.8 30.9  
Snow Depth 0.00 in    
Sea Level Pressure  
Sea Level Pressure 30.27 in    
Wind  
Wind Speed 7 mph (North)    
Max Wind Speed 22 mph    
Max Gust Speed 31 mph    
Visibility 7 miles    
Events Snow    
T = Trace of Precipitation, MM = Missing Value Source: NWS Daily Summary

Daily Weather History Graph

Daily Weather History Graph

Search for Another Location

Airport:

Trip Planner

Search our weather history database for the weather conditions in past years. The results will help you decide how hot, cold, wet, or windy it might be!

Date:

Astronomy

Jan. 25, 2013 Rise Set
Actual Time 7:16 AM EST 4:59 PM EST
Civil Twilight 6:45 AM EST 5:30 PM EST
Nautical Twilight 6:11 AM EST 6:04 PM EST
Astronomical Twilight 5:37 AM EST 6:37 PM EST
Moon 3:54 PM EST (1/25) 5:54 AM EST (1/25)
Length of Visible Light 10h 44m
Length of Day
9h 43m
Waxing Gibbous, 98% of the Moon is Illuminated
Jan 25
Waxing Gibbous
Jan 26
Full
Feb 3
Last Quarter
Feb 10
New
Feb 17
First Quarter

Hourly Weather History & Observations

Time (EST) Temp. Windchill Dew Point Humidity Pressure Visibility Wind Dir Wind Speed Gust Speed Precip Events Conditions
12:51 AM 8.1 °F -8.4 °F -4.0 °F 58% 30.40 in 10.0 mi NW 13.8 mph - N/A   Clear
1:51 AM 8.6 °F -10.0 °F -5.8 °F 52% 30.40 in 10.0 mi NNW 18.4 mph 26.5 mph N/A   Clear
2:51 AM 7.0 °F -11.0 °F -6.0 °F 55% 30.42 in 10.0 mi NW 16.1 mph 24.2 mph N/A   Clear
3:51 AM 6.1 °F -11.6 °F -6.0 °F 58% 30.41 in 10.0 mi NW 15.0 mph 20.7 mph N/A   Clear
4:51 AM 5.0 °F -11.6 °F -6.0 °F 61% 30.42 in 10.0 mi WNW 12.7 mph - N/A   Partly Cloudy
5:51 AM 3.9 °F -9.4 °F -6.0 °F 64% 30.42 in 10.0 mi NW 8.1 mph - N/A   Partly Cloudy
6:51 AM 3.9 °F -11.3 °F -6.0 °F 64% 30.42 in 10.0 mi NNW 10.4 mph 16.1 mph N/A   Scattered Clouds
7:51 AM 3.9 °F -8.2 °F -6.0 °F 64% 30.43 in 10.0 mi NW 6.9 mph - N/A   Overcast
8:51 AM 7.0 °F -3.3 °F -4.0 °F 61% 30.43 in 10.0 mi NW 5.8 mph - N/A   Overcast
9:51 AM 9.0 °F -3.2 °F -2.0 °F 61% 30.42 in 10.0 mi NW 8.1 mph - N/A   Overcast
10:51 AM 12.0 °F 0.5 °F -0.9 °F 56% 30.39 in 10.0 mi NW 8.1 mph - N/A   Mostly Cloudy
11:51 AM 14.0 °F - -0.9 °F 52% 30.35 in 10.0 mi Calm Calm - N/A   Mostly Cloudy
12:51 PM 16.0 °F 8.8 °F -2.0 °F 45% 30.30 in 10.0 mi Variable 4.6 mph - N/A   Mostly Cloudy
1:51 PM 16.0 °F 8.8 °F -2.9 °F 43% 30.26 in 10.0 mi West 4.6 mph - N/A   Overcast
2:51 PM 17.1 °F - -2.9 °F 41% 30.23 in 10.0 mi Calm Calm - N/A   Overcast
3:51 PM 17.1 °F 10.0 °F -2.9 °F 41% 30.22 in 10.0 mi NNE 4.6 mph - N/A   Overcast
4:51 PM 16.0 °F 10.4 °F -2.9 °F 43% 30.20 in 10.0 mi East 3.5 mph - N/A   Overcast
5:51 PM 15.1 °F 6.4 °F -0.0 °F 51% 30.18 in 9.0 mi NNE 5.8 mph - N/A   Overcast
6:51 PM 14.0 °F 8.2 °F 8.6 °F 79% 30.14 in 4.0 mi NNE 3.5 mph - N/A Snow Light Snow
7:14 PM 14.0 °F 8.2 °F 8.6 °F 79% 30.14 in 2.0 mi ENE 3.5 mph - 0.01 in Snow Light Snow
7:35 PM 14.0 °F 6.5 °F 8.6 °F 79% 30.13 in 1.5 mi ENE 4.6 mph - 0.01 in Snow Light Snow
7:51 PM 14.0 °F 8.2 °F 10.0 °F 84% 30.14 in 1.5 mi NE 3.5 mph - 0.02 in Snow Light Snow
8:25 PM 14.0 °F 6.5 °F 10.4 °F 86% 30.11 in 2.0 mi NE 4.6 mph - 0.01 in Snow Light Snow
8:40 PM 14.0 °F 6.5 °F 10.4 °F 86% 30.11 in 1.5 mi NNE 4.6 mph - 0.02 in Snow Light Snow
8:51 PM 14.0 °F 6.5 °F 10.0 °F 84% 30.13 in 1.8 mi North 4.6 mph - 0.02 in Snow Light Snow
9:51 PM 12.9 °F 5.2 °F 9.0 °F 84% 30.12 in 1.8 mi North 4.6 mph - 0.02 in Snow Light Snow
10:51 PM 12.9 °F 5.2 °F 9.0 °F 84% 30.12 in 1.8 mi North 4.6 mph - 0.01 in Snow Light Snow
10:55 PM 12.2 °F 2.9 °F 8.6 °F 85% 30.10 in 2.0 mi NNE 5.8 mph - 0.00 in Snow Light Snow
11:16 PM 12.2 °F 4.3 °F 8.6 °F 85% 30.09 in 5.0 mi NNE 4.6 mph - 0.00 in Snow Light Snow
11:51 PM 10.9 °F 2.9 °F 7.0 °F 84% 30.11 in 6.0 mi North 4.6 mph - 0.01 in Snow Light Snow